| time (UTC) | temp F | wind direction | speed MPH | gust MPH | rain 1hr in | rain 24hr in | rain mn in | humidity % | barometer mb |
| 20260508130758 | 56 | 273 | 0.0 | 0.0 | 0.00 | 0.00 | 0.00 | 98 | 1018.1 |
| 20260508130256 | 56 | 273 | 0.0 | 0.0 | 0.00 | 0.00 | 0.00 | 98 | 1018.1 |
| 20260508125744 | 56 | 273 | 0.0 | 0.0 | 0.00 | 0.00 | 0.00 | 98 | 1017.8 |
| 20260508125205 | 56 | 273 | 0.0 | 0.0 | 0.00 | 0.00 | 0.00 | 99 | 1017.9 |
| 20260508124703 | 56 | 273 | 0.0 | 0.0 | 0.00 | 0.00 | 0.00 | 99 | 1017.8 |
| 20260508124146 | 56 | 273 | 0.0 | 0.0 | 0.00 | 0.00 | 0.00 | 99 | 1017.8 |
| 20260508123647 | 56 | 273 | 0.0 | 0.0 | 0.00 | 0.00 | 0.00 | 99 | 1017.8 |
| 20260508123126 | 56 | 273 | 0.0 | 0.0 | 0.00 | 0.00 | 0.00 | 99 | 1017.8 |
| 20260508121601 | 55 | 273 | 0.0 | 0.0 | 0.00 | 0.00 | 0.00 | 99 | 1017.5 |
| 20260508121050 | 55 | 273 | 0.0 | 0.0 | 0.00 | 0.00 | 0.00 | 99 | 1017.4 |
| 20260508120551 | 55 | 273 | 0.0 | 0.0 | 0.00 | 0.00 | 0.00 | 99 | 1017.3 |
| 20260508120033 | 55 | 273 | 0.0 | 0.0 | 0.00 | 0.00 | 0.00 | 99 | 1017.2 |
| 20260508115530 | 55 | 273 | 0.0 | 0.0 | 0.00 | 0.00 | 0.00 | 99 | 1017.3 |
| 20260508114441 | 54 | 273 | 0.0 | 0.0 | 0.00 | 0.00 | 0.00 | 98 | 1017.1 |
| 20260508113938 | 54 | 273 | 0.0 | 0.0 | 0.00 | 0.00 | 0.00 | 98 | 1016.9 |
| 20260508113436 | 54 | 273 | 0.0 | 0.0 | 0.00 | 0.00 | 0.00 | 98 | 1016.9 |
| 20260508112432 | 54 | 273 | 0.0 | 0.0 | 0.00 | 0.00 | 0.00 | 98 | 1016.7 |
| 20260508111908 | 54 | 273 | 0.0 | 0.0 | 0.00 | 0.00 | 0.00 | 98 | 1016.6 |
| 20260508111407 | 54 | 273 | 0.0 | 0.0 | 0.00 | 0.00 | 0.00 | 98 | 1016.6 |
| 20260508110854 | 54 | 273 | 0.0 | 0.0 | 0.00 | 0.00 | 0.00 | 98 | 1016.5 |
| 20260508105852 | 54 | 273 | 0.0 | 0.0 | 0.00 | 0.00 | 0.00 | 98 | 1016.4 |
| 20260508105349 | 54 | 273 | 0.0 | 0.0 | 0.00 | 0.00 | 0.00 | 98 | 1016.4 |
| 20260508104834 | 54 | 273 | 0.0 | 0.0 | 0.00 | 0.00 | 0.00 | 98 | 1016.5 |
| 20260508104332 | 54 | 273 | 0.0 | 0.0 | 0.00 | 0.00 | 0.00 | 98 | 1016.4 |
| 20260508103810 | 54 | 273 | 0.0 | 0.0 | 0.00 | 0.00 | 0.00 | 98 | 1016.4 |
| 20260508103252 | 55 | 273 | 0.0 | 0.0 | 0.00 | 0.00 | 0.00 | 98 | 1016.2 |
| 20260508102251 | 55 | 273 | 0.0 | 0.0 | 0.00 | 0.00 | 0.00 | 98 | 1016.2 |
| 20260508101752 | 55 | 273 | 0.0 | 0.0 | 0.00 | 0.00 | 0.00 | 98 | 1016.2 |
| 20260508101250 | 55 | 273 | 0.0 | 0.0 | 0.00 | 0.00 | 0.00 | 98 | 1016.2 |
| 20260508100223 | 55 | 273 | 0.0 | 0.0 | 0.00 | 0.00 | 0.00 | 98 | 1016.2 |
| 20260508095722 | 55 | 273 | 0.0 | 0.0 | 0.00 | 0.00 | 0.00 | 98 | 1016.1 |
| 20260508095220 | 55 | 273 | 0.0 | 0.0 | 0.00 | 0.00 | 0.00 | 98 | 1015.9 |
| 20260508094718 | 55 | 273 | 0.0 | 0.0 | 0.00 | 0.00 | 0.00 | 98 | 1015.7 |
| 20260508094213 | 55 | 273 | 0.0 | 0.0 | 0.00 | 0.00 | 0.00 | 98 | 1015.5 |
| 20260508093711 | 55 | 273 | 0.0 | 0.0 | 0.00 | 0.01 | 0.00 | 98 | 1015.4 |
| 20260508093156 | 55 | 273 | 0.0 | 0.0 | 0.00 | 0.01 | 0.00 | 98 | 1015.2 |
| 20260508092652 | 55 | 273 | 0.0 | 0.0 | 0.00 | 0.01 | 0.00 | 98 | 1015.0 |
| 20260508091115 | 55 | 273 | 0.0 | 0.0 | 0.00 | 0.01 | 0.00 | 97 | 1014.8 |
| 20260508090550 | 55 | 273 | 0.0 | 0.0 | 0.00 | 0.03 | 0.00 | 97 | 1014.8 |
| 20260508090036 | 55 | 273 | 0.0 | 0.0 | 0.00 | 0.06 | 0.00 | 97 | 1014.8 |
| 20260508085535 | 55 | 273 | 0.0 | 0.0 | 0.00 | 0.07 | 0.00 | 97 | 1014.7 |
| 20260508085029 | 55 | 273 | 0.0 | 0.0 | 0.00 | 0.11 | 0.00 | 97 | 1014.7 |
| 20260508084518 | 55 | 273 | 0.0 | 0.0 | 0.00 | 0.13 | 0.00 | 97 | 1014.7 |
| 20260508084018 | 55 | 273 | 0.0 | 0.0 | 0.00 | 0.14 | 0.00 | 97 | 1014.7 |
| 20260508083013 | 55 | 273 | 0.0 | 0.0 | 0.00 | 0.17 | 0.00 | 97 | 1014.6 |
| 20260508082446 | 55 | 273 | 0.0 | 0.0 | 0.00 | 0.17 | 0.00 | 97 | 1014.6 |
| 20260508081943 | 55 | 273 | 0.0 | 0.0 | 0.00 | 0.17 | 0.00 | 97 | 1014.6 |
| 20260508081416 | 55 | 273 | 0.0 | 0.0 | 0.00 | 0.17 | 0.00 | 97 | 1014.5 |
| 20260508080913 | 55 | 273 | 0.0 | 0.0 | 0.00 | 0.17 | 0.00 | 97 | 1014.5 |
| 20260508080353 | 55 | 273 | 0.0 | 0.0 | 0.00 | 0.17 | 0.00 | 97 | 1014.5 |
| 20260508075343 | 56 | 273 | 0.0 | 0.0 | 0.00 | 0.17 | 0.00 | 97 | 1014.7 |
| 20260508074812 | 56 | 273 | 0.0 | 0.0 | 0.00 | 0.18 | 0.00 | 97 | 1014.8 |
| 20260508074309 | 56 | 273 | 0.0 | 0.0 | 0.00 | 0.18 | 0.00 | 97 | 1014.8 |
| 20260508073742 | 56 | 273 | 0.0 | 0.0 | 0.00 | 0.18 | 0.00 | 97 | 1014.8 |
| 20260508073237 | 56 | 273 | 0.0 | 0.0 | 0.00 | 0.18 | 0.00 | 97 | 1014.9 |
| 20260508072728 | 56 | 273 | 0.0 | 0.0 | 0.00 | 0.20 | 0.00 | 97 | 1015.0 |
| 20260508072225 | 56 | 273 | 0.0 | 0.0 | 0.00 | 0.22 | 0.00 | 97 | 1015.0 |
| 20260508071658 | 56 | 273 | 0.0 | 0.0 | 0.00 | 0.22 | 0.00 | 97 | 1015.2 |
| 20260508071156 | 57 | 273 | 0.0 | 0.0 | 0.00 | 0.22 | 0.00 | 97 | 1015.2 |
| 20260508070653 | 57 | 273 | 0.0 | 0.0 | 0.00 | 0.23 | 0.00 | 97 | 1015.1 |
| 20260508070137 | 57 | 273 | 0.0 | 0.0 | 0.00 | 0.24 | 0.00 | 97 | 1015.1 |
| 20260508065640 | 57 | 273 | 0.0 | 0.0 | 0.00 | 0.26 | 0.00 | 97 | 1014.9 |
| 20260508065135 | 57 | 273 | 0.0 | 0.0 | 0.00 | 0.26 | 0.00 | 97 | 1015.1 |
| 20260508064113 | 57 | 273 | 0.0 | 0.0 | 0.00 | 0.26 | 0.00 | 97 | 1015.0 |
| 20260508063612 | 57 | 273 | 0.0 | 0.0 | 0.00 | 0.26 | 0.00 | 97 | 1015.1 |
| 20260508063112 | 57 | 273 | 0.0 | 0.0 | 0.00 | 0.26 | 0.00 | 96 | 1015.2 |
| 20260508062627 | 57 | 273 | 0.0 | 0.0 | 0.00 | 0.26 | 0.00 | 96 | 1015.2 |
| 20260508062047 | 57 | 273 | 0.0 | 0.0 | 0.00 | 0.26 | 0.00 | 96 | 1015.2 |
| 20260508061520 | 57 | 273 | 0.0 | 0.0 | 0.00 | 0.26 | 0.00 | 96 | 1015.2 |
| 20260508060505 | 57 | 273 | 0.0 | 0.0 | 0.00 | 0.26 | 0.00 | 96 | 1015.2 |
| 20260508060005 | 57 | 273 | 0.0 | 0.0 | 0.00 | 0.26 | 0.00 | 96 | 1015.2 |
| 20260508055456 | 57 | 273 | 0.0 | 0.0 | 0.00 | 0.26 | 0.00 | 96 | 1015.2 |
| 20260508055000 | 57 | 273 | 0.0 | 0.0 | 0.00 | 0.26 | 0.00 | 96 | 1015.5 |
| 20260508054426 | 57 | 273 | 0.0 | 0.0 | 0.00 | 0.26 | 0.00 | 96 | 1015.5 |
| 20260508053923 | 58 | 273 | 0.0 | 0.0 | 0.00 | 0.26 | 0.00 | 96 | 1015.6 |
| 20260508053358 | 58 | 273 | 0.0 | 0.0 | 0.00 | 0.27 | 0.00 | 96 | 1015.7 |
| 20260508052852 | 58 | 273 | 0.0 | 0.0 | 0.00 | 0.27 | 0.00 | 95 | 1015.8 |
| 20260508052334 | 58 | 273 | 0.0 | 0.0 | 0.00 | 0.27 | 0.00 | 95 | 1015.7 |
| 20260508051826 | 58 | 273 | 0.0 | 0.0 | 0.00 | 0.27 | 0.00 | 95 | 1015.6 |
| 20260508051259 | 58 | 273 | 0.0 | 0.0 | 0.00 | 0.28 | 0.00 | 95 | 1015.7 |
| 20260508050757 | 58 | 273 | 0.0 | 0.0 | 0.00 | 0.28 | 0.00 | 95 | 1015.6 |
| 20260508050230 | 58 | 273 | 0.0 | 0.0 | 0.00 | 0.28 | 0.00 | 95 | 1015.8 |
| 20260508045715 | 58 | 273 | 0.0 | 0.0 | 0.00 | 0.28 | 0.28 | 95 | 1015.9 |
| 20260508045216 | 58 | 273 | 0.0 | 0.0 | 0.00 | 0.28 | 0.28 | 94 | 1015.7 |
| 20260508044650 | 58 | 273 | 0.0 | 0.0 | 0.00 | 0.28 | 0.28 | 94 | 1015.7 |
| 20260508044146 | 58 | 273 | 0.0 | 0.0 | 0.00 | 0.28 | 0.28 | 94 | 1015.9 |
| 20260508043620 | 58 | 273 | 0.0 | 0.0 | 0.00 | 0.28 | 0.28 | 94 | 1015.7 |
| 20260508043117 | 58 | 273 | 0.0 | 0.0 | 0.00 | 0.28 | 0.28 | 94 | 1015.8 |
| 20260508042626 | 58 | 273 | 0.0 | 0.0 | 0.00 | 0.28 | 0.28 | 94 | 1016.1 |
| 20260508042105 | 58 | 273 | 0.0 | 0.0 | 0.00 | 0.28 | 0.28 | 94 | 1015.8 |
| 20260508041537 | 58 | 273 | 0.0 | 0.0 | 0.00 | 0.28 | 0.28 | 94 | 1015.8 |
| 20260508041034 | 58 | 273 | 0.0 | 0.0 | 0.00 | 0.29 | 0.28 | 93 | 1015.7 |
| 20260508040507 | 58 | 273 | 0.0 | 0.0 | 0.00 | 0.31 | 0.28 | 93 | 1015.6 |
| 20260508040004 | 58 | 273 | 0.0 | 0.0 | 0.00 | 0.32 | 0.28 | 93 | 1015.8 |
| 20260508034420 | 59 | 273 | 0.0 | 0.0 | 0.00 | 0.36 | 0.28 | 92 | 1015.9 |
| 20260508033850 | 59 | 273 | 0.0 | 0.0 | 0.00 | 0.39 | 0.28 | 92 | 1015.8 |
| 20260508033323 | 59 | 273 | 0.0 | 0.0 | 0.00 | 0.40 | 0.28 | 92 | 1015.7 |
| 20260508032820 | 59 | 273 | 0.0 | 0.0 | 0.00 | 0.40 | 0.28 | 92 | 1015.6 |
| 20260508032306 | 59 | 273 | 0.0 | 0.0 | 0.00 | 0.41 | 0.28 | 92 | 1015.5 |
| 20260508031802 | 60 | 273 | 0.0 | 0.0 | 0.00 | 0.41 | 0.28 | 92 | 1015.6 |
| 20260508031254 | 60 | 273 | 0.0 | 0.0 | 0.00 | 0.41 | 0.28 | 92 | 1015.7 |
| 20260508030233 | 60 | 273 | 0.0 | 0.0 | 0.00 | 0.44 | 0.28 | 91 | 1015.4 |
| 20260508025734 | 60 | 273 | 0.0 | 0.0 | 0.00 | 0.46 | 0.28 | 91 | 1015.6 |
| 20260508025217 | 60 | 273 | 0.0 | 0.0 | 0.00 | 0.48 | 0.28 | 91 | 1015.5 |
| 20260508024718 | 60 | 273 | 0.0 | 0.0 | 0.00 | 0.52 | 0.28 | 91 | 1015.6 |
| 20260508024149 | 60 | 273 | 0.0 | 0.0 | 0.00 | 0.54 | 0.28 | 91 | 1015.3 |
| 20260508023622 | 60 | 273 | 0.0 | 0.0 | 0.00 | 0.55 | 0.28 | 91 | 1015.1 |
| 20260508023058 | 60 | 273 | 0.0 | 0.0 | 0.00 | 0.55 | 0.28 | 91 | 1015.1 |
| 20260508022532 | 60 | 273 | 0.0 | 0.0 | 0.00 | 0.55 | 0.28 | 90 | 1015.2 |
| 20260508021514 | 61 | 273 | 0.0 | 0.0 | 0.00 | 0.59 | 0.28 | 88 | 1015.0 |
| 20260508020949 | 61 | 273 | 0.0 | 0.0 | 0.00 | 0.59 | 0.28 | 88 | 1015.0 |
| 20260508020422 | 61 | 273 | 0.0 | 0.0 | 0.00 | 0.60 | 0.28 | 87 | 1015.2 |
| 20260508015854 | 62 | 273 | 0.0 | 0.0 | 0.00 | 0.60 | 0.28 | 86 | 1015.1 |
| 20260508015352 | 62 | 273 | 0.0 | 0.0 | 0.00 | 0.60 | 0.28 | 86 | 1014.9 |
| 20260508014839 | 62 | 273 | 0.0 | 0.0 | 0.00 | 0.60 | 0.28 | 85 | 1014.8 |
| 20260508014338 | 62 | 273 | 0.0 | 0.0 | 0.00 | 0.60 | 0.28 | 85 | 1014.9 |
| 20260508013813 | 63 | 273 | 0.0 | 0.0 | 0.00 | 0.60 | 0.28 | 84 | 1014.8 |
| 20260508012726 | 63 | 273 | 0.0 | 0.0 | 0.00 | 0.60 | 0.28 | 81 | 1014.8 |
| 20260508012203 | 63 | 273 | 0.0 | 0.0 | 0.00 | 0.60 | 0.28 | 81 | 1014.8 |
| 20260508011651 | 64 | 273 | 0.0 | 0.0 | 0.00 | 0.60 | 0.28 | 81 | 1014.7 |
| 20260508011111 | 64 | 273 | 0.0 | 0.0 | 0.00 | 0.60 | 0.28 | 80 | 1014.7 |
| 20260508010110 | 64 | 273 | 0.0 | 0.0 | 0.00 | 0.60 | 0.28 | 79 | 1014.6 |
| 20260508005544 | 64 | 273 | 0.0 | 0.0 | 0.00 | 0.60 | 0.28 | 80 | 1014.6 |
| 20260508005044 | 65 | 273 | 0.0 | 0.0 | 0.00 | 0.60 | 0.28 | 80 | 1014.4 |
| 20260508004525 | 65 | 273 | 0.0 | 0.0 | 0.00 | 0.60 | 0.28 | 81 | 1014.4 |
| 20260508004020 | 65 | 273 | 0.0 | 0.0 | 0.00 | 0.60 | 0.28 | 80 | 1014.4 |
| 20260508003522 | 65 | 273 | 0.0 | 0.0 | 0.00 | 0.60 | 0.28 | 80 | 1014.5 |
| 20260508002958 | 65 | 273 | 0.0 | 0.0 | 0.00 | 0.60 | 0.28 | 81 | 1014.4 |
| 20260508002432 | 66 | 273 | 0.0 | 0.0 | 0.00 | 0.60 | 0.28 | 80 | 1014.4 |
| 20260508001347 | 67 | 273 | 0.0 | 0.0 | 0.00 | 0.60 | 0.28 | 84 | 1014.4 |
| 20260508000314 | 67 | 273 | 0.0 | 0.0 | 0.00 | 0.60 | 0.28 | 84 | 1014.2 |
| 20260507235746 | 67 | 273 | 0.0 | 0.0 | 0.00 | 0.60 | 0.28 | 82 | 1014.1 |
| 20260507235245 | 68 | 273 | 0.0 | 0.0 | 0.00 | 0.60 | 0.28 | 83 | 1014.0 |
| 20260507234737 | 68 | 273 | 0.0 | 0.0 | 0.00 | 0.60 | 0.28 | 81 | 1014.1 |
| 20260507234243 | 68 | 273 | 0.0 | 0.0 | 0.00 | 0.60 | 0.28 | 82 | 1013.9 |
| 20260507233735 | 68 | 273 | 0.0 | 0.0 | 0.00 | 0.60 | 0.28 | 83 | 1013.9 |
| 20260507233211 | 68 | 273 | 0.0 | 0.0 | 0.00 | 0.60 | 0.28 | 82 | 1013.9 |
| 20260507232649 | 68 | 273 | 0.0 | 0.0 | 0.00 | 0.60 | 0.28 | 81 | 1013.8 |
| 20260507232146 | 68 | 273 | 0.0 | 0.0 | 0.00 | 0.60 | 0.28 | 80 | 1013.8 |
| 20260507231056 | 68 | 273 | 0.0 | 0.0 | 0.00 | 0.60 | 0.28 | 77 | 1013.8 |
| 20260507230554 | 68 | 273 | 0.0 | 0.0 | 0.00 | 0.60 | 0.28 | 76 | 1013.7 |
| 20260507230030 | 68 | 273 | 0.0 | 0.0 | 0.00 | 0.60 | 0.28 | 80 | 1013.6 |
| 20260507225507 | 68 | 273 | 0.0 | 0.0 | 0.00 | 0.60 | 0.28 | 81 | 1013.6 |
| 20260507224944 | 68 | 273 | 0.0 | 0.0 | 0.00 | 0.60 | 0.28 | 80 | 1013.6 |
| 20260507223913 | 69 | 273 | 0.0 | 0.0 | 0.00 | 0.60 | 0.28 | 80 | 1013.6 |
| 20260507223403 | 69 | 273 | 0.0 | 0.0 | 0.00 | 0.60 | 0.28 | 77 | 1013.6 |
| 20260507222834 | 69 | 273 | 0.0 | 0.0 | 0.00 | 0.60 | 0.28 | 80 | 1013.5 |
| 20260507221241 | 69 | 273 | 0.0 | 0.0 | 0.00 | 0.60 | 0.28 | 76 | 1013.5 |
| 20260507220717 | 70 | 273 | 0.0 | 0.0 | 0.00 | 0.60 | 0.28 | 78 | 1013.5 |
| 20260507220158 | 70 | 273 | 0.0 | 0.0 | 0.00 | 0.60 | 0.28 | 77 | 1013.5 |
| 20260507213509 | 70 | 273 | 0.0 | 0.0 | 0.00 | 0.61 | 0.28 | 71 | 1013.4 |
| 20260507211925 | 70 | 273 | 0.0 | 0.0 | 0.00 | 0.61 | 0.28 | 72 | 1013.3 |
| 20260507210858 | 70 | 273 | 0.0 | 1.0 | 0.00 | 0.62 | 0.28 | 72 | 1013.3 |
| 20260507210359 | 70 | 273 | 0.0 | 0.0 | 0.00 | 0.62 | 0.28 | 72 | 1013.1 |
| 20260507205855 | 70 | 273 | 0.0 | 0.0 | 0.00 | 0.63 | 0.28 | 73 | 1013.1 |
| 20260507205355 | 70 | 273 | 0.0 | 0.0 | 0.00 | 0.64 | 0.28 | 72 | 1013.1 |
| 20260507204827 | 70 | 304 | 0.0 | 0.0 | 0.00 | 0.71 | 0.28 | 74 | 1013.4 |
| 20260507204326 | 69 | 305 | 0.0 | 0.0 | 0.00 | 0.78 | 0.28 | 72 | 1013.4 |
| 20260507202239 | 69 | 305 | 0.0 | 2.0 | 0.00 | 0.79 | 0.28 | 72 | 1013.8 |
| 20260507201738 | 69 | 305 | 0.0 | 2.0 | 0.00 | 0.79 | 0.28 | 74 | 1013.5 |
| 20260507201236 | 69 | 302 | 0.0 | 0.0 | 0.00 | 0.79 | 0.28 | 72 | 1013.7 |
| 20260507200720 | 69 | 302 | 0.0 | 0.0 | 0.00 | 0.79 | 0.28 | 75 | 1013.7 |
| 20260507200220 | 69 | 302 | 0.0 | 1.0 | 0.00 | 0.79 | 0.28 | 73 | 1013.8 |
| 20260507195719 | 69 | 302 | 0.0 | 1.0 | 0.00 | 0.79 | 0.28 | 76 | 1013.8 |
| 20260507195153 | 69 | 302 | 0.0 | 1.0 | 0.00 | 0.79 | 0.28 | 76 | 1013.7 |
| 20260507194649 | 69 | 302 | 0.0 | 1.0 | 0.00 | 0.79 | 0.28 | 78 | 1013.8 |
| 20260507194147 | 69 | 302 | 0.0 | 0.0 | 0.00 | 0.79 | 0.28 | 76 | 1013.9 |
| 20260507193619 | 69 | 302 | 0.0 | 5.0 | 0.00 | 0.79 | 0.28 | 75 | 1013.9 |
| 20260507193116 | 69 | 302 | 0.0 | 5.0 | 0.00 | 0.79 | 0.28 | 78 | 1013.8 |
| 20260507192555 | 68 | 161 | 0.0 | 0.0 | 0.00 | 0.79 | 0.28 | 77 | 1013.8 |
| 20260507192028 | 68 | 161 | 0.0 | 4.0 | 0.00 | 0.79 | 0.28 | 79 | 1013.8 |
| 20260507191525 | 67 | 161 | 0.0 | 4.0 | 0.00 | 0.79 | 0.28 | 80 | 1013.8 |
| 20260507191027 | 67 | 161 | 0.0 | 0.0 | 0.00 | 0.79 | 0.28 | 80 | 1014.0 |
| 20260507190515 | 66 | 161 | 0.0 | 0.0 | 0.00 | 0.79 | 0.28 | 78 | 1014.0 |
| 20260507185959 | 66 | 161 | 0.0 | 0.0 | 0.00 | 0.79 | 0.28 | 80 | 1013.9 |
| 20260507185500 | 66 | 161 | 0.0 | 0.0 | 0.00 | 0.79 | 0.28 | 85 | 1014.0 |
| 20260507184957 | 65 | 161 | 0.0 | 0.0 | 0.00 | 0.79 | 0.28 | 83 | 1014.1 |
| 20260507184431 | 65 | 161 | 0.0 | 0.0 | 0.00 | 0.79 | 0.28 | 83 | 1014.2 |
| 20260507183425 | 65 | 161 | 0.0 | 2.0 | 0.00 | 0.79 | 0.28 | 84 | 1014.3 |
| 20260507181855 | 65 | 160 | 0.0 | 0.0 | 0.00 | 0.79 | 0.28 | 86 | 1014.7 |
| 20260507181322 | 65 | 160 | 0.0 | 0.0 | 0.00 | 0.79 | 0.28 | 86 | 1014.7 |
| 20260507180818 | 64 | 160 | 0.0 | 0.0 | 0.00 | 0.79 | 0.28 | 85 | 1014.7 |
| 20260507180252 | 64 | 160 | 0.0 | 0.0 | 0.00 | 0.79 | 0.28 | 87 | 1014.6 |
| 20260507175749 | 64 | 160 | 0.0 | 4.0 | 0.00 | 0.79 | 0.28 | 89 | 1014.7 |
| 20260507175240 | 64 | 160 | 0.0 | 4.0 | 0.00 | 0.79 | 0.28 | 88 | 1014.7 |
| 20260507174737 | 64 | 161 | 0.0 | 0.0 | 0.00 | 0.79 | 0.28 | 89 | 1014.7 |
| 20260507174211 | 63 | 161 | 0.0 | 0.0 | 0.00 | 0.79 | 0.28 | 91 | 1014.8 |
| 20260507173644 | 63 | 161 | 0.0 | 1.0 | 0.00 | 0.79 | 0.28 | 92 | 1014.8 |
| 20260507172638 | 62 | 161 | 0.0 | 0.0 | 0.00 | 0.79 | 0.28 | 94 | 1015.1 |
| 20260507172136 | 62 | 161 | 0.0 | 0.0 | 0.00 | 0.79 | 0.28 | 95 | 1015.1 |
| 20260507171609 | 61 | 161 | 0.0 | 0.0 | 0.00 | 0.79 | 0.28 | 95 | 1015.1 |
| 20260507171104 | 61 | 161 | 0.0 | 0.0 | 0.00 | 0.79 | 0.28 | 95 | 1015.0 |
| 20260507170618 | 61 | 161 | 0.0 | 0.0 | 0.00 | 0.79 | 0.28 | 96 | 1015.2 |
| 20260507170049 | 61 | 161 | 0.0 | 0.0 | 0.00 | 0.79 | 0.28 | 95 | 1015.2 |
| 20260507165508 | 61 | 161 | 0.0 | 0.0 | 0.00 | 0.79 | 0.28 | 96 | 1015.2 |
| 20260507164958 | 61 | 161 | 0.0 | 0.0 | 0.00 | 0.79 | 0.28 | 96 | 1015.3 |
| 20260507163952 | 61 | 161 | 0.0 | 1.0 | 0.00 | 0.79 | 0.28 | 97 | 1015.1 |
| 20260507163452 | 60 | 161 | 0.0 | 1.0 | 0.00 | 0.79 | 0.28 | 96 | 1015.1 |
| 20260507162926 | 60 | 196 | 0.0 | 0.0 | 0.00 | 0.79 | 0.28 | 97 | 1015.0 |
| 20260507162401 | 60 | 196 | 0.0 | 0.0 | 0.00 | 0.79 | 0.28 | 97 | 1014.8 |
| 20260507161903 | 60 | 196 | 0.0 | 0.0 | 0.00 | 0.79 | 0.28 | 97 | 1014.8 |
| 20260507161356 | 60 | 196 | 0.0 | 0.0 | 0.00 | 0.79 | 0.28 | 97 | 1014.9 |
| 20260507160853 | 61 | 196 | 0.0 | 0.0 | 0.00 | 0.79 | 0.28 | 97 | 1014.8 |
| 20260507160350 | 61 | 196 | 0.0 | 0.0 | 0.00 | 0.79 | 0.28 | 97 | 1014.7 |
| 20260507155854 | 61 | 196 | 0.0 | 0.0 | 0.00 | 0.79 | 0.28 | 97 | 1014.6 |
| 20260507155328 | 61 | 196 | 0.0 | 1.0 | 0.00 | 0.79 | 0.28 | 97 | 1014.6 |
| 20260507154822 | 61 | 196 | 0.0 | 1.0 | 0.00 | 0.79 | 0.28 | 97 | 1014.7 |
| 20260507154318 | 61 | 196 | 0.0 | 1.0 | 0.00 | 0.79 | 0.28 | 97 | 1014.6 |
| 20260507153227 | 62 | 213 | 0.0 | 1.0 | 0.00 | 0.79 | 0.28 | 98 | 1014.4 |
| 20260507152724 | 62 | 213 | 0.0 | 0.0 | 0.00 | 0.79 | 0.28 | 98 | 1014.3 |
| 20260507152223 | 62 | 213 | 0.0 | 0.0 | 0.00 | 0.79 | 0.28 | 98 | 1014.3 |
| 20260507151200 | 62 | 213 | 0.0 | 0.0 | 0.00 | 0.79 | 0.28 | 99 | 1014.2 |
| 20260507150638 | 62 | 213 | 0.0 | 0.0 | 0.00 | 0.79 | 0.28 | 99 | 1014.2 |
| 20260507150125 | 62 | 213 | 0.0 | 0.0 | 0.00 | 0.79 | 0.28 | 99 | 1014.1 |
| 20260507145622 | 62 | 213 | 0.0 | 0.0 | 0.00 | 0.79 | 0.28 | 99 | 1014.0 |
| 20260507145101 | 62 | 213 | 0.0 | 0.0 | 0.00 | 0.79 | 0.28 | 99 | 1014.0 |
| 20260507144058 | 62 | 213 | 0.0 | 0.0 | 0.00 | 0.79 | 0.28 | 99 | 1014.0 |
| 20260507143547 | 62 | 213 | 0.0 | 0.0 | 0.00 | 0.79 | 0.28 | 100 | 1013.9 |
| 20260507143045 | 61 | 213 | 0.0 | 0.0 | 0.00 | 0.79 | 0.28 | 100 | 1013.9 |
| 20260507142520 | 61 | 213 | 0.0 | 0.0 | 0.00 | 0.79 | 0.28 | 100 | 1014.1 |
| 20260507142004 | 61 | 213 | 0.0 | 0.0 | 0.00 | 0.79 | 0.28 | 100 | 1014.0 |
| 20260507141501 | 61 | 213 | 0.0 | 0.0 | 0.00 | 0.79 | 0.28 | 100 | 1014.2 |
| 20260507135915 | 61 | 213 | 0.0 | 0.0 | 0.00 | 0.79 | 0.28 | 100 | 1013.9 |
| 20260507135350 | 61 | 213 | 0.0 | 0.0 | 0.00 | 0.79 | 0.28 | 100 | 1013.6 |
| 20260507134824 | 61 | 213 | 0.0 | 0.0 | 0.00 | 0.79 | 0.28 | 100 | 1013.5 |
| 20260507133751 | 61 | 213 | 0.0 | 0.0 | 0.00 | 0.79 | 0.28 | 100 | 1013.7 |
| 20260507132746 | 61 | 213 | 0.0 | 0.0 | 0.00 | 0.79 | 0.28 | 100 | 1013.6 |
| 20260507132237 | 61 | 213 | 0.0 | 0.0 | 0.00 | 0.79 | 0.28 | 100 | 1013.4 |
| 20260507131736 | 61 | 213 | 0.0 | 0.0 | 0.00 | 0.79 | 0.28 | 100 | 1013.2 |
| 20260507131240 | 60 | 213 | 0.0 | 0.0 | 0.00 | 0.79 | 0.28 | 100 | 1013.3 |